Tracking 27111 objects as of 29-Mar-2023
HD Live streaming from Space Station
objects crossing your sky now

FLOCK 4Y 29

Track FLOCK 4Y 29 now!
10-day predictions
FLOCK 4Y 29 is classified as:


NORAD ID: 55030
Int'l Code: 2023-001X
Perigee: 517.9 km
Apogee: 531.7 km
Inclination: 97.5 °
Period: 95.0 minutes
Semi major axis: 6895 km
RCS: Unknown
Launch date: January 3, 2023
Source: United States (US)
Launch site: AIR FORCE EASTERN TEST RANGE (AFETR)
Your satellite tracking list
Your tracking list is empty




NASA's NSSDC Master Catalog

Two Line Element Set (TLE):
1 55030U 23001X   23087.67596891  .00011010  00000-0  57400-3 0  9992
2 55030  97.4851 148.4499 0010040 284.9663  75.0458 15.16099606 12871
Source of the keplerian elements: AFSPC